Showing default

GAOFEN 1-04, 43262

Orbit data source: Space-Track

GAOFEN 1-04, 43262 is a payload satellite owned by GGKGJ (CN) in SSO that was launched on Sat, 31 Mar 2018 UTC via a CHANG ZHENG 4C launch vehicle from the Taiyaun Space Center, China (TSC). Payload-class satellites include a variety of spacecraft equipped with specific instruments for various scientific and technological missions. These include communications satellites like Starlink; space stations such as the ISS; scientific satellites like the Hubble; Earth observation satellites from companies like Planet Labs, Umbra, and HawkEye 360; GPS; miniature CubeSats for education and research; and military/defense satellites.

Loading next visibility...
Identifier
43262, 2018-031D
Orbit
SSO
Country
Flag of CNCN / PRC
Related business
Manufacturer
DFH
Mission
Operational Civil Imaging
Bus & Motor
CAST-2000, AOCS
Mass
805 kg wet, ~700 kg dry
Launch date (UTC)
2018-03-31 (8 years ago)
Launch vehicle
CHANG ZHENG 4C
Launch site
Taiyaun Space Center, China (TSC)
Object type
Payload
Rocket body
Debris
Shape & HBR
Box + 2 Pan, 2.0 m
Radar Cross Section
4.991 m², Large (>1 m²)

Expand to show TLE details & history
Last TLE update: 6 hours ago

TLE from 6 hours ago
0 GAOFEN 1-04
1 43262U 18031D   26127.79305875  .00000517  00000-0  81656-4 0  9995
2 43262  98.0544 190.4756 0001033 120.4446 239.6866 14.76484246436727
Epoch: 2026-05-07T19:02Z
TLE epoch observation values (Epoch: 2026-05-07T19:02:00.276Z)
Latitude
0.00004°
Longitude
39.34034°
Altitude
643.822 km
Speed
7.536 km/s
True Right ascension
12h 41m 54s
True Declination
0° 00' 00"
Sunlit
Object was in full shadow at epoch
Visualization orbit readout
Latitude
Unknown
Longitude
Unknown
Altitude
Unknown
Speed
Unknown
Apparent Right ascension
Unknown
Apparent Declination
Unknown
Sunlit
N/A
Visualization observer readout
Local Sidereal Time
08:42:11
Azimuth
Unknown
Elevation
Unknown
Doppler factor
Unknown
Orbital elements
Apogee altitude
638.221 km
Perigee altitude
636.771 km
Semi-major axis
7,015.633 km
Eccentricity
0.0001
Inclination
98.0544°
RAAN
190.4756°
Arg. of periapsis
120.4446°
True anomaly
239.67638°
Mean anomaly
239.6866°
Eccentric anomaly
239.68149°
Mean motion
3.69354 °/min
Orbital period
97.47 mins
BSTAR
0.000081656
Loading maneuver chart data...
Computing Atmospheric mass density...
Loading historical data...
Loading historical data...
Loading historical data...
Loading historical data...
Loading historical data...
Loading historical data...
Loading historical data...

Documentation

Showing up to 5 results
|